Terminal Aerodrome Forecast
Issued by NWS

Home | Current Version | Previous Version | Text Only | Print | Product List | Glossary Off
Versions: 1 2 3 4 5 6 7 8 9 10 11 12 13 14 15 16 17 18 19 20 21 22 23 24 25 26

000
FTUS41 KCLE 220100 AAA
TAFFDY
TAF AMD
KFDY 220139Z 2202/2224 36008KT P6SM OVC025
      TEMPO 2202/2205 5SM -SHRA OVC018
     FM221500 36008KT P6SM BKN035
     FM221800 01008KT P6SM SCT035=

USA.gov is the U.S. government's official web portal to all federal, state and local government web resources and services.